• în Republica Moldova
  • Lista ţărilor
  • Pe 7 zile
  • Temperatura apei
  • Hartă satelitară
  • Meteo pe hartă
  • Widget-uri
  • user-avatar
    Intrare

    Meteo pe oră la Tibissa

    Astăzi, 22 Iunie, Joi

    Timp Temperatura Precipitaţii Vânt Presiune Umiditate
    00:00 +25°C° 0 mm 1 m/s 687 mmHg 54%
    01:00 +22°C° 0 mm 0 m/s 687 mmHg 59%
    02:00 +21°C° 0,2 mm 0 m/s 686 mmHg 60%
    03:00 +21°C° 0,2 mm 0 m/s 686 mmHg 61%
    04:00 +21°C° 0,2 mm 0 m/s 686 mmHg 62%
    05:00 +23°C° 0,2 mm 1 m/s 686 mmHg 59%
    06:00 +24°C° 0,2 mm 1 m/s 687 mmHg 55%
    07:00 +25°C° 0,2 mm 1 m/s 687 mmHg 52%
    08:00 +27°C° 0,1 mm 1 m/s 688 mmHg 47%
    09:00 +28°C° 0,1 mm 1 m/s 688 mmHg 42%
    10:00 +30°C° 0,1 mm 2 m/s 688 mmHg 37%
    11:00 +30°C° 0,2 mm 2 m/s 688 mmHg 35%
    12:00 +31°C° 0,2 mm 2 m/s 688 mmHg 33%
    13:00 +31°C° 0,2 mm 2 m/s 688 mmHg 32%
    14:00 +31°C° 0,3 mm 2 m/s 688 mmHg 34%
    15:00 +30°C° 0,3 mm 2 m/s 688 mmHg 36%
    16:00 +29°C° 0,3 mm 2 m/s 688 mmHg 39%
    17:00 +28°C° 0,9 mm 3 m/s 687 mmHg 45%
    18:00 +27°C° 0,9 mm 3 m/s 687 mmHg 50%
    19:00 +26°C° 0,9 mm 4 m/s 687 mmHg 56%
    20:00 +25°C° 0,8 mm 3 m/s 688 mmHg 58%
    21:00 +25°C° 0,8 mm 2 m/s 688 mmHg 61%
    22:00 +24°C° 0,8 mm 2 m/s 689 mmHg 63%
    23:00 +23°C° 0 mm 2 m/s 689 mmHg 64%

    Mâine, 23 Iunie, Vineri

    Timp Temperatura Precipitaţii Vânt Presiune Umiditate
    00:00 +23°C° 0 mm 1 m/s 689 mmHg 65%
    01:00 +23°C° 0 mm 1 m/s 689 mmHg 66%
    02:00 +22°C° 0 mm 1 m/s 688 mmHg 68%
    03:00 +22°C° 0 mm 1 m/s 688 mmHg 71%
    04:00 +21°C° 0 mm 1 m/s 688 mmHg 73%
    05:00 +22°C° 0 mm 1 m/s 688 mmHg 70%
    06:00 +23°C° 0 mm 1 m/s 689 mmHg 67%
    07:00 +23°C° 0 mm 1 m/s 689 mmHg 64%
    08:00 +25°C° 0 mm 1 m/s 690 mmHg 58%
    09:00 +27°C° 0 mm 2 m/s 690 mmHg 51%
    10:00 +28°C° 0 mm 2 m/s 691 mmHg 45%
    11:00 +29°C° 0 mm 2 m/s 691 mmHg 41%
    12:00 +30°C° 0 mm 2 m/s 691 mmHg 37%
    13:00 +31°C° 0 mm 2 m/s 691 mmHg 33%
    14:00 +31°C° 0,1 mm 2 m/s 690 mmHg 32%
    15:00 +32°C° 0,1 mm 2 m/s 690 mmHg 32%
    16:00 +32°C° 0,1 mm 2 m/s 690 mmHg 31%
    17:00 +31°C° 0 mm 2 m/s 690 mmHg 33%
    18:00 +30°C° 0 mm 2 m/s 690 mmHg 36%
    19:00 +29°C° 0 mm 2 m/s 689 mmHg 38%
    20:00 +28°C° 0 mm 2 m/s 690 mmHg 41%
    21:00 +27°C° 0 mm 2 m/s 690 mmHg 45%
    22:00 +26°C° 0 mm 2 m/s 690 mmHg 48%
    23:00 +25°C° 0 mm 2 m/s 690 mmHg 49%

    Poimâine, 24 Iunie, Sâmbătă

    Timp Temperatura Precipitaţii Vânt Presiune Umiditate
    00:00 +24°C° 0 mm 1 m/s 689 mmHg 51%
    01:00 +24°C° 0 mm 1 m/s 689 mmHg 53%
    02:00 +23°C° 0 mm 1 m/s 689 mmHg 53%
    03:00 +23°C° 0 mm 1 m/s 689 mmHg 54%
    04:00 +22°C° 0 mm 1 m/s 688 mmHg 55%
    05:00 +21°C° 0 mm 0 m/s 689 mmHg 51%
    06:00 +22°C° 0 mm 0 m/s 689 mmHg 48%
    07:00 +23°C° 0 mm 0 m/s 689 mmHg 45%
    08:00 +26°C° 0 mm 1 m/s 690 mmHg 41%
    09:00 +28°C° 0 mm 1 m/s 690 mmHg 38%
    10:00 +30°C° 0 mm 1 m/s 690 mmHg 35%
    11:00 +31°C° 0 mm 2 m/s 690 mmHg 32%
    12:00 +31°C° 0 mm 2 m/s 690 mmHg 30%
    13:00 +32°C° 0 mm 2 m/s 690 mmHg 27%
    14:00 +32°C° 0 mm 2 m/s 689 mmHg 26%
    15:00 +34°C° 0 mm 2 m/s 689 mmHg 26%
    16:00 +34°C° 0 mm 2 m/s 689 mmHg 25%
    17:00 +32°C° 0 mm 2 m/s 689 mmHg 26%
    18:00 +31°C° 0 mm 2 m/s 688 mmHg 27%
    19:00 +31°C° 0 mm 2 m/s 688 mmHg 28%
    20:00 +29°C° 0 mm 2 m/s 688 mmHg 31%
    21:00 +28°C° 0 mm 2 m/s 688 mmHg 33%
    22:00 +26°C° 0 mm 2 m/s 689 mmHg 36%
    23:00 +25°C° 0 mm 2 m/s 688 mmHg 38%

    25 Iunie, Duminică

    Timp Temperatura Precipitaţii Vânt Presiune Umiditate
    00:00 +25°C° 0 mm 2 m/s 688 mmHg 41%
    01:00 +24°C° 0 mm 1 m/s 688 mmHg 44%
    02:00 +23°C° 0 mm 1 m/s 687 mmHg 46%
    03:00 +23°C° 0 mm 1 m/s 687 mmHg 47%
    04:00 +22°C° 0 mm 1 m/s 687 mmHg 49%
    05:00 +23°C° 0 mm 1 m/s 687 mmHg 46%
    06:00 +24°C° 0 mm 1 m/s 687 mmHg 42%
    07:00 +23°C° 0 mm 0 m/s 688 mmHg 39%
    08:00 +27°C° 0 mm 1 m/s 688 mmHg 35%
    09:00 +29°C° 0 mm 1 m/s 688 mmHg 31%
    10:00 +31°C° 0 mm 1 m/s 689 mmHg 26%
    11:00 +32°C° 0 mm 1 m/s 689 mmHg 23%
    12:00 +33°C° 0 mm 1 m/s 688 mmHg 21%
    13:00 +35°C° 0 mm 2 m/s 688 mmHg 18%
    14:00 +36°C° 0 mm 2 m/s 688 mmHg 17%
    15:00 +36°C° 0 mm 2 m/s 688 mmHg 16%
    16:00 +36°C° 0 mm 2 m/s 687 mmHg 15%
    17:00 +36°C° 0 mm 3 m/s 687 mmHg 17%
    18:00 +35°C° 0 mm 3 m/s 687 mmHg 19%
    19:00 +34°C° 0 mm 3 m/s 687 mmHg 20%
    20:00 +31°C° 0 mm 3 m/s 687 mmHg 24%
    21:00 +30°C° 0 mm 3 m/s 687 mmHg 28%
    22:00 +28°C° 0 mm 3 m/s 687 mmHg 32%
    23:00 +27°C° 0 mm 3 m/s 687 mmHg 34%

    26 Iunie, Luni

    Timp Temperatura Precipitaţii Vânt Presiune Umiditate
    00:00 +27°C° 0 mm 2 m/s 687 mmHg 35%
    01:00 +26°C° 0 mm 2 m/s 686 mmHg 37%
    02:00 +26°C° 0 mm 2 m/s 686 mmHg 37%
    03:00 +25°C° 0 mm 2 m/s 686 mmHg 38%
    04:00 +25°C° 0 mm 2 m/s 685 mmHg 38%
    05:00 +25°C° 0 mm 2 m/s 686 mmHg 36%
    06:00 +26°C° 0 mm 2 m/s 686 mmHg 34%
    07:00 +27°C° 0 mm 3 m/s 686 mmHg 32%
    08:00 +29°C° 0 mm 3 m/s 687 mmHg 28%
    09:00 +31°C° 0 mm 3 m/s 687 mmHg 24%
    10:00 +35°C° 0 mm 4 m/s 687 mmHg 21%
    11:00 +36°C° 0 mm 3 m/s 687 mmHg 19%
    12:00 +37°C° 0 mm 3 m/s 687 mmHg 17%
    13:00 +38°C° 0 mm 2 m/s 687 mmHg 15%
    14:00 +39°C° 0 mm 3 m/s 687 mmHg 15%
    15:00 +39°C° 0 mm 3 m/s 686 mmHg 14%
    16:00 +39°C° 0 mm 3 m/s 686 mmHg 14%
    17:00 +38°C° 0 mm 3 m/s 686 mmHg 16%
    18:00 +37°C° 0 mm 3 m/s 686 mmHg 18%
    19:00 +35°C° 0 mm 4 m/s 685 mmHg 20%
    20:00 +34°C° 0 mm 3 m/s 686 mmHg 23%
    21:00 +31°C° 0 mm 3 m/s 686 mmHg 25%
    22:00 +30°C° 0 mm 3 m/s 686 mmHg 28%
    23:00 +29°C° 0 mm 3 m/s 686 mmHg 29%

    27 Iunie, Marţi

    Timp Temperatura Precipitaţii Vânt Presiune Umiditate
    00:00 +28°C° 0 mm 3 m/s 686 mmHg 31%
    01:00 +28°C° 0 mm 2 m/s 686 mmHg 32%
    02:00 +27°C° 0 mm 2 m/s 685 mmHg 33%
    03:00 +27°C° 0 mm 2 m/s 685 mmHg 33%
    04:00 +27°C° 0 mm 2 m/s 685 mmHg 33%
    05:00 +27°C° 0 mm 3 m/s 685 mmHg 32%
    06:00 +28°C° 0 mm 3 m/s 685 mmHg 30%
    07:00 +29°C° 0 mm 3 m/s 686 mmHg 28%
    08:00 +32°C° 0 mm 4 m/s 686 mmHg 25%
    09:00 +35°C° 0 mm 4 m/s 687 mmHg 21%
    10:00 +37°C° 0 mm 5 m/s 687 mmHg 18%
    11:00 +38°C° 0 mm 4 m/s 687 mmHg 16%
    12:00 +40°C° 0 mm 4 m/s 687 mmHg 15%
    13:00 +40°C° 0 mm 3 m/s 687 mmHg 13%
    14:00 +40°C° 0 mm 3 m/s 686 mmHg 13%
    15:00 +41°C° 0 mm 4 m/s 686 mmHg 14%
    16:00 +40°C° 0 mm 4 m/s 686 mmHg 14%
    17:00 +38°C° 0,1 mm 4 m/s 685 mmHg 16%
    18:00 +37°C° 0,1 mm 3 m/s 685 mmHg 19%
    19:00 +35°C° 0,1 mm 3 m/s 685 mmHg 22%
    20:00 +34°C° 0,2 mm 3 m/s 685 mmHg 25%
    21:00 +31°C° 0,2 mm 3 m/s 685 mmHg 28%
    22:00 +30°C° 0,2 mm 2 m/s 685 mmHg 30%
    23:00 +29°C° 0 mm 2 m/s 685 mmHg 32%
    Arată mai mult